World > North America > United States > Pennsylvania

East Kane, Pennsylvania Regional Weather

Lat: 41.65N, Lon: 78.79W
Wx Zone: PAZ005Web Search

Ads allow us to feed your daily addiction for the world's greatest weather information. We're determined to offer quality sponsors, in the least annoying way possible.

Feedback


°F Click to change East Kane hourly weather to Imperial units.Click to change East Kane hourly weather to Metric units. °C
East Kane Weather Map
UTC Time: 5/8/2021, 21:56
Your Time:

East Kane, PA Regional Weather

Expires:202105082200;;806007
ASUS41 KCTP 082110
RWRCTP

REGIONAL WEATHER ROUNDUP
NATIONAL WEATHER SERVICE STATE COLLEGE PA
500 PM EDT SAT MAY 08 2021

Note: "fair" indicates few or no clouds below 12,000 feet with no 
significant weather and/or obstructions to visibility.

* = STATION THAT DOES NOT REPORT PRECIPITATION /E.G. RAIN...SNOW...ETC/
    THUNDER OR FOG.


PAZ004>006-010>012-017>019-024>028-033>037-041-042-045-046-049>053-082200-
CENTRAL PENNSYLVANIA
  
CITY           SKY/WX    TMP DP  RH WIND       PRES   REMARKS
BRADFORD       PTSUNNY   46  35  65 W13G20    29.96R                  
ST MARYS       LGT RAIN  41  37  87 W3        30.00S                  
DUBOIS         PTSUNNY   47  35  63 W12G26    29.99S                  
CLEARFIELD     PTSUNNY   47  37  68 W15       29.99R                  
JOHNSTOWN      PTSUNNY   45  33  63 NW15G25   29.99R                  
SOMERSET       MOCLDY    45  28  53 NW15G28   30.01R                  
ALTOONA        PTSUNNY   52  34  50 W18G25    29.99R                  
STATE COLLEGE  PTSUNNY   46  41  81 NW3       29.97R                  
REEDSVILLE     LGT RAIN  45 N/A N/A NW13      29.97R                  
WELLSBORO      LGT RAIN  41  37  87 NW12G23   29.93R                  
WILLIAMSPORT   CLOUDY    52  39  61 W12       29.91R                  
SELINSGROVE    MOSUNNY   53  45  74 VRB5      29.93R                  
FT INDIANTOWN  RAIN      52  43  71 NW10G21   29.94R                  
CAPITAL CITY   PTSUNNY   57  35  43 NW15G25   29.93R                  
HARRISBURG     PTSUNNY   56  39  53 W23G30    29.92S                  
YORK           MOSUNNY   57  38  48 W10G22    29.93R                  
$$


SKY/WX - Weather  TMP - Temperature  DP - Dew Point  RH - Relative Humidity
WIND - Wind Direction/Speed PRES - Barometric Pressure VSB - Visibility
WCI - Wind Chill Index E13G22 Wind - East Wind 13 mph/Gusts of 22 mph